Theta_e
330 331 331 332 332 333 333 333 332 332 331 332 333 332 331 331 331 332 332 332 332 332 333 332 331 331 331 331 329 329 329 329 329 329 329 330 331 335 337 336 338 338 335 335 334 331 333 334 333 332 331 332 332 330 330 331 329 328 329 328 327 328 328 328 330 329 329 329 329 329 329 329 330 329 329 329 329 329 328 328 329 331 331 331 333
330 330 331 332 332 332 334 332 332 331 331 331 331 331 331 329 329 331 332 332 333 333 335 331 331 332 331 331 330 329 329 329 329 329 329 330 331 334 337 337 338 338 338 336 335 334 332 332 333 334 333 333 332 331 331 330 329 329 329 328 328 327 327 328 329 329 329 329 329 329 330 329 330 329 329 329 329 328 328 329 329 329 329 330 332
331 331 332 332 331 332 332 332 332 332 331 331 330 330 330 330 330 330 330 331 332 332 333 331 328 329 330 330 330 329 328 329 329 329 329 330 330 332 337 337 336 337 338 338 336 335 334 335 335 335 335 334 332 331 331 329 330 330 328 328 328 327 327 328 329 329 329 329 329 329 330 330 330 331 330 330 330 329 329 329 329 328 328 329 331
335 334 334 333 332 331 331 331 332 333 333 333 332 330 330 330 330 331 331 331 332 331 331 331 327 327 328 329 329 328 328 328 328 329 329 329 329 331 334 336 337 337 337 337 338 336 334 336 335 336 335 333 332 330 329 331 331 330 328 328 328 328 328 329 329 329 329 329 330 331 331 331 331 331 331 330 330 330 329 328 327 327 327 328 331
334 334 335 334 333 332 332 332 332 333 333 333 334 333 330 329 329 331 330 330 330 330 330 327 327 328 329 329 328 328 328 328 328 328 329 329 329 330 332 335 336 337 337 336 339 337 335 335 334 335 334 333 331 329 328 331 330 329 328 328 328 329 330 330 329 328 329 331 331 331 331 331 331 331 331 331 330 330 330 329 329 329 329 328 329
335 335 334 332 331 332 332 332 332 332 333 333 333 333 332 331 330 329 332 330 328 328 328 328 329 328 329 329 328 328 328 327 328 328 329 329 329 330 331 332 333 335 335 335 338 338 337 337 334 334 333 332 332 330 330 330 330 327 328 328 328 328 329 328 328 328 329 331 331 331 331 331 331 331 331 330 330 330 330 330 329 328 328 328 328
336 336 335 334 332 331 331 332 332 332 332 333 333 332 332 331 331 330 329 329 329 329 329 328 327 329 329 330 328 328 328 327 328 328 328 329 329 330 331 331 332 332 335 336 338 338 338 338 333 334 333 332 331 329 331 331 329 328 328 328 328 328 327 327 328 328 331 331 331 332 331 331 331 331 331 330 330 330 330 330 330 329 328 328 328
335 336 335 335 334 333 333 332 332 332 332 332 332 332 332 331 331 331 329 329 328 328 328 327 327 328 328 329 329 330 328 328 328 328 329 329 329 329 330 330 331 331 334 334 336 337 338 337 335 336 333 332 331 330 331 330 329 329 328 329 329 328 327 328 328 328 330 331 331 331 331 331 330 330 330 330 330 330 330 330 330 330 330 329 330
335 336 336 336 335 334 334 333 333 332 331 331 332 332 331 331 331 331 330 329 328 328 327 326 327 328 328 328 329 330 328 328 328 328 330 329 328 329 329 330 331 334 335 332 333 334 337 338 335 336 335 332 332 330 330 329 329 329 328 330 329 328 328 328 329 329 330 331 330 331 331 330 330 331 330 330 330 330 330 330 330 330 330 330 330
335 335 335 336 335 334 334 333 332 331 330 329 330 330 331 331 330 330 331 329 329 328 327 327 327 327 327 327 328 329 329 329 329 331 328 327 327 328 329 330 330 331 333 332 331 331 334 336 336 337 335 333 332 330 329 329 328 328 329 330 329 328 329 330 330 330 331 331 330 331 331 330 330 330 330 330 331 331 330 330 330 330 329 330 330
335 335 335 335 336 336 335 335 334 333 332 331 331 330 329 330 330 330 331 330 329 329 329 328 326 326 327 327 327 328 329 329 330 329 328 328 328 329 328 328 329 330 331 330 330 329 331 333 335 335 334 335 333 330 329 329 329 328 331 331 330 328 329 331 332 331 331 331 331 331 330 330 330 330 330 330 330 330 330 330 330 330 330 329 330
334 334 335 335 335 336 335 335 335 334 333 332 331 331 330 329 329 329 329 329 330 330 330 328 327 326 326 327 326 327 328 329 329 329 328 328 328 329 328 327 328 329 329 329 329 328 329 332 333 330 332 332 332 331 331 330 331 329 331 332 330 329 330 330 331 332 331 331 331 331 330 330 329 329 330 330 330 331 330 330 330 330 330 329 329
334 333 334 335 336 336 335 335 335 334 333 332 333 332 332 331 331 331 329 328 328 329 329 328 326 324 325 325 325 326 329 329 327 328 328 329 328 328 328 328 328 328 329 329 328 328 328 330 330 328 329 330 331 333 331 331 332 329 331 331 330 331 331 331 332 333 332 332 332 331 330 330 329 329 329 330 330 330 330 330 329 329 329 329 329
333 333 334 334 334 335 335 335 335 334 333 334 333 334 333 331 330 328 330 328 328 329 328 326 321 322 321 320 323 324 327 328 326 327 328 328 328 328 328 327 327 327 329 328 327 327 327 328 328 327 328 329 329 330 333 331 332 332 330 331 330 330 332 331 333 334 333 332 332 331 330 330 330 329 329 330 330 329 330 329 329 328 329 329 329
331 333 333 334 334 334 334 335 334 334 333 332 332 331 332 331 331 329 328 328 328 330 328 328 324 323 323 321 318 318 321 324 326 327 327 327 328 327 327 327 327 328 328 328 327 326 326 327 327 326 327 328 328 328 331 330 330 331 332 332 331 330 333 332 333 333 333 333 332 331 330 330 330 330 330 330 330 329 329 328 328 328 329 329 328
332 333 335 334 334 334 334 334 334 334 333 331 331 330 331 331 331 330 329 325 325 326 330 328 326 323 317 318 318 318 314 317 320 324 327 327 327 327 327 326 327 328 327 327 327 327 326 326 326 325 326 327 327 328 329 330 329 331 331 330 331 331 332 333 333 333 332 333 332 331 331 330 331 330 329 330 329 329 328 328 328 328 329 329 329
332 333 335 335 335 335 334 334 334 334 333 331 331 331 332 332 331 330 328 326 324 326 327 328 327 328 325 318 314 313 315 316 319 321 325 324 326 327 328 327 327 327 327 327 327 327 326 326 326 325 326 327 327 327 328 330 330 331 330 331 332 332 332 332 332 333 333 333 332 332 331 331 330 330 329 330 329 329 328 328 328 328 328 327 328
330 331 332 334 334 334 334 333 333 334 333 332 332 331 331 330 331 330 329 329 326 325 325 327 328 327 327 326 323 318 317 318 319 314 322 326 327 327 327 329 329 327 327 327 327 326 326 326 326 325 325 326 327 328 328 329 330 330 331 330 329 332 331 331 333 333 333 333 334 333 332 331 330 330 329 330 329 329 329 327 326 326 327 327 326
327 328 328 330 331 332 333 333 333 333 333 332 331 330 331 331 332 331 329 329 328 324 324 325 325 326 327 327 326 324 323 320 316 316 315 321 325 326 326 328 329 328 326 327 327 326 326 326 326 325 325 326 327 327 328 328 329 328 330 330 329 325 326 326 332 334 335 333 335 334 333 332 331 330 329 329 329 329 329 328 326 325 325 326 326
326 326 327 327 329 330 331 332 332 333 333 331 330 331 331 331 332 331 331 330 328 326 325 326 323 322 326 325 326 326 326 324 322 319 317 315 319 326 328 328 328 328 328 327 327 327 326 325 325 325 326 325 327 327 327 328 329 328 328 327 327 326 325 325 324 325 331 335 336 335 334 333 332 330 330 329 329 328 328 328 328 327 325 324 324
325 326 326 326 328 328 329 330 330 331 331 331 331 331 331 330 329 329 329 329 329 328 326 325 324 324 323 324 325 324 324 324 324 323 317 315 316 319 321 326 327 328 328 329 329 328 327 326 326 325 326 326 326 327 328 328 328 328 327 324 326 326 325 324 320 318 320 330 333 335 333 333 333 332 330 329 328 328 327 327 329 328 326 325 323
324 326 326 327 328 328 328 328 328 328 330 330 331 330 330 330 330 329 330 329 330 328 325 325 326 326 325 324 322 323 323 322 322 322 321 320 316 317 321 320 319 324 327 328 329 329 328 328 326 326 325 326 326 326 328 328 328 328 326 324 326 325 326 325 317 317 318 321 330 331 332 333 333 333 330 329 329 328 326 325 329 328 326 325 323
324 325 325 326 327 328 328 328 328 328 328 328 329 330 330 330 330 329 329 328 328 327 326 326 326 325 325 325 324 323 322 320 320 321 320 318 317 317 320 323 322 321 324 327 328 329 329 329 327 327 326 326 327 326 327 328 328 327 325 323 325 325 326 323 317 314 317 323 327 331 331 332 333 332 331 329 329 329 327 326 327 329 325 324 323
322 322 322 324 325 326 327 327 327 327 327 328 329 329 330 330 329 329 329 329 329 328 327 326 325 325 325 326 326 326 325 324 324 323 321 320 320 318 318 322 323 324 326 327 329 329 328 328 328 328 327 326 327 327 327 327 328 326 326 324 324 324 326 325 319 316 312 318 322 328 332 332 333 332 331 329 329 329 328 327 326 325 325 324 324
319 319 320 321 323 323 323 323 324 326 327 327 328 328 328 328 328 328 329 329 329 329 327 327 327 325 325 327 327 326 325 326 326 324 324 323 321 318 320 322 319 321 325 325 324 328 329 328 328 329 328 327 327 327 327 327 328 327 325 326 323 322 323 328 325 318 314 313 317 325 330 330 331 331 332 331 329 328 328 327 323 320 321 321 323
316 317 318 319 321 322 321 317 318 320 322 322 324 327 328 328 328 328 328 329 330 329 329 328 328 328 328 326 326 326 326 327 327 326 324 323 321 320 319 320 321 321 324 323 325 324 326 329 330 330 329 329 328 328 327 327 328 325 324 327 324 321 320 322 325 322 317 313 313 320 323 327 329 331 330 330 328 325 324 320 317 318 315 314 316
314 315 315 316 318 319 317 314 315 316 316 314 316 319 320 324 327 328 329 330 329 329 329 329 328 328 328 327 327 327 328 328 328 326 326 325 323 322 320 316 317 319 319 322 323 323 323 326 329 329 329 329 329 328 328 328 326 325 324 328 329 320 319 320 322 325 320 315 312 314 316 320 321 321 323 323 321 318 320 320 319 316 315 314 317
312 312 312 314 314 317 314 312 312 312 313 311 311 312 314 318 320 323 325 328 328 328 328 329 328 328 328 329 328 327 328 328 327 327 327 326 325 324 322 320 316 313 317 318 320 321 326 324 327 329 329 329 330 330 328 327 328 324 324 328 328 326 317 317 320 324 323 319 316 314 313 313 316 316 318 318 321 320 321 321 319 316 314 316 321
309 311 310 310 311 314 313 310 309 309 309 308 308 309 310 312 313 315 317 317 320 324 327 327 328 328 328 328 327 328 328 328 328 328 327 327 326 326 325 322 320 316 313 314 317 318 323 325 322 326 330 330 329 330 329 329 327 326 328 328 328 329 321 317 316 319 321 318 316 314 314 316 316 319 323 322 322 322 322 319 317 317 316 319 322
308 308 308 308 308 310 311 309 307 307 306 305 305 306 307 308 308 310 311 312 313 316 321 325 326 327 327 327 327 326 328 328 328 328 328 327 326 326 325 325 323 319 317 314 315 320 321 325 326 325 329 329 330 330 330 329 326 326 329 328 329 329 319 316 315 314 316 317 314 311 310 313 317 321 325 321 320 321 319 317 315 316 316 321 322
306 306 307 306 306 306 308 309 305 304 304 304 304 304 304 304 304 305 306 307 309 310 314 317 321 325 326 326 327 326 327 327 327 327 328 327 327 326 325 325 324 322 320 318 314 319 324 321 324 328 327 329 330 329 329 330 328 327 329 329 329 325 321 319 315 315 315 315 313 312 313 313 314 316 319 321 321 321 320 320 318 318 321 322 319
304 305 305 305 304 304 305 307 305 303 303 303 302 302 302 302 301 302 303 304 304 306 308 311 315 319 323 325 326 326 327 327 326 326 326 327 327 327 326 325 324 324 323 320 317 317 322 324 325 326 328 328 329 328 328 329 328 322 329 329 329 324 325 327 315 315 315 314 314 315 319 316 313 316 319 321 320 322 321 320 321 322 320 316 314
302 303 304 303 303 303 303 304 303 302 301 301 301 300 300 299 300 300 301 301 301 302 304 306 310 313 317 321 324 326 327 326 326 326 326 326 327 326 326 325 324 324 323 320 318 317 319 321 324 325 327 328 326 328 327 327 328 327 325 329 329 328 327 327 325 314 313 313 312 311 312 312 312 318 320 321 322 322 319 317 318 317 315 313 311
301 301 302 302 302 302 302 302 301 301 300 299 299 299 298 298 298 299 299 299 300 300 302 303 305 307 310 313 318 323 326 326 326 326 326 326 326 325 325 324 323 323 324 321 319 318 317 318 320 324 325 327 325 328 327 326 326 325 326 327 328 328 327 327 326 322 312 313 312 311 311 312 310 314 314 313 314 314 313 311 311 310 314 310 306
300 300 301 301 301 301 301 301 301 300 299 299 299 299 298 297 297 297 298 298 299 300 300 301 302 304 306 309 312 317 323 325 326 326 326 326 326 325 325 325 323 323 323 323 320 317 317 318 320 321 323 325 325 326 327 328 328 327 325 326 326 327 328 327 326 325 312 311 310 311 311 311 310 310 310 311 311 310 310 310 309 309 309 308 305
298 299 300 300 301 300 300 300 299 299 299 299 298 298 297 297 296 296 297 298 298 299 300 301 302 304 305 306 309 312 316 320 323 325 325 326 325 325 325 324 324 323 323 323 323 320 319 317 318 320 322 323 324 326 327 328 328 325 325 326 327 326 326 326 326 325 317 310 310 310 311 311 310 309 309 309 310 309 308 308 308 307 307 307 306
298 298 298 300 299 299 299 298 298 298 298 298 298 297 296 296 296 296 297 297 298 299 300 301 304 304 305 305 307 309 312 315 320 323 324 324 325 325 324 324 324 324 323 323 322 322 320 318 318 320 322 323 325 325 327 325 325 324 325 324 324 324 325 326 326 325 316 309 310 310 309 310 309 308 309 309 309 308 307 307 307 307 307 307 306
297 297 298 298 299 298 298 298 298 298 298 298 297 296 295 296 296 297 297 298 298 299 301 302 303 304 305 306 307 309 311 314 317 321 324 324 325 324 324 324 324 324 323 322 322 321 320 320 319 317 319 321 321 322 325 326 323 321 321 322 323 324 323 321 322 324 321 315 315 314 311 310 309 308 309 308 308 306 306 306 306 307 307 306 306
296 296 297 297 298 298 298 298 298 298 298 297 297 295 295 295 296 296 297 298 299 301 302 304 306 307 307 307 309 311 313 315 316 316 318 321 323 323 324 324 324 323 322 322 322 321 320 319 319 319 318 320 321 320 323 326 325 323 320 318 317 321 322 320 319 322 321 317 314 310 312 313 313 312 309 307 307 308 307 306 307 307 306 306 305
296 295 295 296 297 298 298 298 298 298 297 297 296 295 295 295 296 297 298 299 301 303 305 305 305 306 307 307 308 309 311 312 312 311 312 313 317 321 324 324 323 322 321 321 320 320 319 319 319 318 318 317 319 320 322 323 321 320 321 318 315 316 318 320 321 320 321 318 316 314 311 311 311 311 307 307 308 308 307 307 307 307 307 305 304
297 296 295 295 295 296 296 297 297 298 297 296 296 295 294 295 296 297 298 300 302 302 302 302 303 303 303 304 305 306 308 310 307 306 306 306 308 312 320 323 323 321 321 321 320 320 319 319 318 319 317 316 317 317 317 318 317 317 319 320 318 318 319 317 320 323 321 317 316 315 314 315 314 314 313 313 313 309 309 308 309 308 307 304 303
295 296 295 295 295 295 294 295 296 296 296 296 297 295 295 295 296 297 299 301 301 301 301 300 300 301 301 301 303 307 305 305 304 302 301 301 304 307 311 320 322 321 321 320 320 319 319 317 317 317 315 315 316 317 316 318 319 320 318 318 316 318 316 315 317 319 320 318 315 313 314 316 315 315 314 313 313 312 312 311 314 310 307 303 303
294 295 294 293 293 294 294 294 294 295 295 295 293 292 292 294 297 298 299 300 300 300 299 299 298 299 299 300 301 303 303 303 303 301 299 299 300 299 300 303 311 322 321 319 320 320 318 318 318 317 316 315 316 317 317 318 319 319 318 318 318 316 314 312 309 312 318 318 315 314 312 315 316 313 313 314 314 313 313 314 307 306 304 303 303
293 293 293 293 293 293 293 293 294 294 295 295 292 292 292 292 295 298 298 299 299 298 298 298 298 297 298 298 299 300 300 301 301 301 300 299 298 297 297 299 300 301 306 317 319 319 319 318 317 317 317 316 316 317 317 317 316 317 317 316 316 315 313 314 314 312 315 319 315 313 311 313 316 315 312 314 314 313 314 309 303 304 303 302 302
292 291 291 292 292 292 293 292 293 294 294 294 292 292 292 292 292 296 298 298 298 297 297 297 297 297 297 298 298 298 298 301 301 299 299 298 298 298 298 301 303 300 298 298 302 318 322 319 318 317 318 317 316 316 318 318 317 317 317 315 316 315 315 315 316 315 312 318 316 313 311 311 314 312 311 313 313 313 312 305 303 303 302 302 302
291 291 291 291 291 291 292 292 292 293 294 294 291 292 292 291 292 294 297 297 297 297 297 297 297 296 296 297 296 296 296 296 297 297 296 295 296 297 300 305 312 312 303 299 299 299 305 318 320 318 320 320 318 318 319 317 317 316 316 316 316 315 314 315 317 313 311 319 316 314 311 309 312 312 310 312 313 312 312 307 302 302 302 301 301
289 289 289 290 291 291 291 291 292 292 293 292 291 291 291 291 292 294 296 296 297 296 296 296 296 296 296 297 297 295 294 295 296 295 294 294 294 295 298 302 311 316 317 316 313 311 310 313 319 321 321 321 321 321 321 319 319 319 319 318 318 317 316 310 307 309 312 318 318 314 309 308 311 311 310 309 310 310 311 303 302 301 301 301 301
289 290 290 290 290 290 291 291 291 291 292 292 291 291 291 291 292 294 295 295 295 295 295 295 295 296 296 296 296 294 294 294 295 292 293 294 294 295 297 303 310 315 316 312 302 303 309 314 318 319 318 313 304 315 318 320 320 319 317 317 317 314 310 309 308 305 309 314 317 314 308 305 309 310 300 302 307 305 305 306 301 302 301 301 300
288 289 289 289 290 289 291 291 291 291 292 292 291 291 291 291 293 293 293 293 294 294 294 295 295 295 295 296 296 294 293 293 293 290 291 294 297 297 299 303 310 314 313 306 298 295 294 296 296 298 296 296 297 297 298 303 313 316 317 314 314 313 310 307 306 303 305 309 313 314 307 304 306 303 298 298 300 300 301 303 304 301 301 300 300
288 288 290 289 290 290 290 290 293 291 291 293 292 291 291 291 293 292 292 292 293 293 293 294 295 294 295 297 298 294 293 293 291 290 291 295 298 300 302 306 309 311 306 306 307 304 297 296 295 294 295 296 297 299 299 297 299 308 316 312 313 312 310 309 307 304 304 306 310 311 305 303 302 301 296 296 297 296 297 300 302 302 300 299 299
289 288 291 289 289 290 290 291 294 291 292 293 292 291 291 291 292 293 292 292 292 292 292 293 293 293 293 295 296 294 293 292 290 291 291 294 297 297 298 305 309 304 303 304 304 303 303 303 303 303 302 301 304 304 303 297 298 303 314 317 315 312 311 310 309 304 302 302 307 309 304 299 300 300 299 297 293 295 296 297 298 299 300 300 299
Wind_Speed
3 3 3 3 2 1 2 2 2 2 1 1 1 3 3 3 3 3 3 4 3 3 3 2 3 3 4 5 5 5 5 4 5 5 5 4 4 5 11 11 6 6 8 7 7 5 8 9 8 7 8 8 6 6 5 5 4 4 5 4 4 4 4 5 8 7 8 7 8 8 9 9 9 9 9 9 9 8 7 6 7 11 10 11 12
3 2 1 3 4 3 2 2 2 1 0 2 2 2 4 4 4 4 4 4 4 3 2 3 3 4 4 4 5 6 5 5 5 5 5 4 4 4 11 10 8 8 6 8 8 8 6 6 7 8 7 7 7 5 5 6 6 6 6 5 5 5 6 6 7 8 8 7 8 8 8 9 10 10 9 9 8 7 8 10 9 9 9 10 13
2 2 2 2 3 3 4 3 2 0 1 1 2 3 3 3 4 4 4 4 4 2 2 1 2 2 4 4 5 5 5 5 4 4 4 4 4 4 6 12 10 9 6 9 9 8 8 8 8 8 7 7 6 6 6 5 5 6 5 6 5 5 6 7 8 8 9 9 9 9 10 9 9 10 9 8 9 9 8 9 9 8 8 9 12
2 2 2 2 3 3 3 3 4 2 1 2 3 2 4 4 3 3 4 4 4 3 2 2 3 2 3 4 4 5 5 5 5 5 4 4 4 4 4 5 12 10 9 6 7 8 8 10 9 9 9 7 6 6 6 6 7 7 5 5 5 5 7 8 9 9 8 9 9 9 10 10 10 10 10 9 9 9 8 7 8 8 8 8 11
2 2 3 2 2 3 3 3 4 3 1 4 3 3 3 3 3 1 3 3 3 3 1 1 2 2 2 3 3 4 4 5 5 4 4 4 3 3 4 4 5 9 10 9 7 7 9 10 9 10 9 7 6 5 6 8 7 6 6 6 6 7 8 9 9 9 9 9 9 9 10 11 11 10 10 10 9 10 9 8 10 9 8 8 9
3 3 2 2 2 3 3 3 3 3 2 3 3 3 4 4 4 3 3 2 3 2 1 3 3 2 2 3 3 4 4 5 6 5 4 4 3 3 3 4 4 4 5 11 9 7 10 6 9 9 8 7 8 7 8 7 6 5 7 7 6 6 9 9 9 9 9 10 10 10 11 11 12 11 10 10 10 10 10 9 10 10 9 9 9
4 4 3 3 3 3 3 4 3 3 3 3 4 3 4 5 4 5 4 3 2 3 3 4 4 5 3 3 4 4 4 5 5 5 5 5 4 3 3 3 3 4 3 4 9 10 10 7 8 8 9 8 9 8 9 9 6 6 7 8 7 7 7 8 8 9 10 10 11 12 12 12 12 12 11 11 10 11 11 11 10 9 10 10 9
4 4 5 4 4 5 5 3 4 3 3 3 4 5 4 4 5 4 5 4 3 6 4 4 4 5 4 3 4 5 5 5 6 6 5 4 4 3 2 3 3 3 4 4 5 5 10 7 6 8 8 10 9 8 9 9 8 8 8 7 8 8 8 8 8 9 10 10 11 12 12 12 13 12 12 11 10 11 11 11 11 10 10 11 11
4 4 5 5 4 5 5 3 3 4 3 4 5 5 3 5 5 5 6 4 4 7 6 3 4 4 4 4 4 5 6 6 7 7 5 5 5 4 4 4 6 7 5 5 5 5 7 9 7 9 9 10 10 10 10 9 10 9 9 9 9 9 8 10 10 10 9 10 10 11 11 12 12 12 12 11 11 11 11 12 12 11 11 12 11
4 4 4 5 5 6 6 4 2 2 3 4 4 3 4 4 6 6 4 3 5 7 7 2 0 5 5 5 4 5 6 6 6 6 6 6 6 7 7 6 7 5 5 5 5 5 4 8 11 9 11 9 10 10 10 10 10 10 11 11 10 10 10 10 10 10 11 11 11 12 11 9 10 11 10 11 12 13 13 13 12 12 12 12 12
4 4 4 4 5 6 5 4 3 3 3 3 4 3 4 4 6 6 5 5 8 7 7 5 7 7 5 6 4 6 5 5 5 6 6 6 6 7 5 7 5 4 4 5 5 5 5 5 5 5 6 11 9 11 10 10 10 11 11 12 12 10 11 12 12 11 12 12 12 12 10 9 8 10 10 11 13 13 13 13 13 13 12 12 12
4 4 4 4 5 5 4 4 3 3 4 4 5 4 5 5 6 7 6 5 7 6 6 6 6 7 7 6 4 4 5 5 6 6 5 5 6 6 6 4 4 4 5 5 4 5 5 6 4 5 5 8 11 10 11 11 10 11 12 13 12 12 12 12 13 13 12 12 12 12 11 10 9 10 10 11 13 13 13 13 13 13 13 12 12
3 3 3 4 4 4 4 4 3 3 4 5 6 6 6 5 5 4 6 6 6 6 6 4 3 2 3 4 2 3 4 6 7 6 6 6 6 7 6 6 5 5 5 5 5 5 5 6 5 4 5 5 7 10 11 10 11 12 12 14 13 14 13 13 14 14 13 13 13 12 11 11 10 10 10 11 12 13 13 14 13 12 12 12 12
2 3 4 4 4 4 4 5 4 4 4 5 6 6 5 5 5 5 4 6 5 5 4 4 3 5 3 2 3 3 4 5 5 6 6 5 6 6 5 6 6 6 5 5 5 5 5 5 5 6 5 6 6 5 6 8 8 13 12 13 14 14 14 15 15 15 15 14 14 14 12 12 10 10 11 11 11 12 13 14 14 13 12 12 12
3 3 3 3 3 4 4 4 4 4 4 4 5 6 6 6 6 6 6 4 5 3 5 7 4 3 2 1 3 2 3 4 4 6 7 7 7 8 7 7 8 6 6 6 6 6 5 5 6 6 6 6 6 6 5 5 6 11 11 14 14 14 16 16 16 14 15 15 15 14 13 12 11 11 11 11 11 12 12 13 13 13 12 11 12
3 3 2 3 4 5 5 4 4 4 4 5 5 5 6 6 7 7 7 6 3 4 6 7 5 4 2 5 2 2 2 6 7 6 7 8 9 9 8 8 7 6 7 9 8 7 5 5 6 7 7 6 6 6 5 5 8 10 9 9 13 15 16 17 16 15 16 16 16 15 12 13 12 12 11 11 11 12 12 12 13 14 13 12 11
5 4 4 4 4 3 4 4 4 4 4 5 5 6 6 6 6 7 6 6 7 3 4 6 8 8 5 2 1 1 4 2 3 4 6 7 10 10 9 9 9 8 8 8 7 7 6 6 6 6 7 6 6 6 5 6 6 7 8 10 14 14 15 17 15 16 16 17 17 16 14 13 12 12 11 11 13 13 13 12 12 12 13 13 13
6 6 5 5 5 5 4 4 5 5 4 3 5 6 6 6 5 6 7 6 6 6 5 5 8 7 8 6 2 2 2 2 1 3 1 6 6 8 9 10 8 9 8 7 8 8 7 7 6 7 7 6 6 6 6 6 6 6 6 7 12 15 15 15 16 15 17 18 18 17 17 15 13 12 12 13 15 15 14 13 12 12 13 12 12
7 7 6 6 5 5 5 5 5 4 4 5 5 5 6 6 6 6 6 5 6 8 8 5 4 7 9 9 8 5 4 3 5 1 4 2 6 7 8 9 9 7 8 10 10 8 7 7 7 7 7 6 6 6 6 6 8 7 9 9 12 12 12 10 12 17 17 18 18 18 17 16 15 14 14 14 14 15 15 14 13 13 12 12 12
6 6 6 6 6 6 6 6 6 5 6 5 5 5 5 5 6 6 6 6 6 7 7 6 7 4 8 8 8 9 8 6 4 6 4 3 3 5 5 8 8 10 10 10 10 10 10 9 9 7 6 7 7 7 7 7 7 8 9 13 13 12 12 12 7 11 16 16 17 18 18 17 17 17 15 14 15 14 15 14 14 14 13 12 12
6 6 6 7 7 6 5 5 5 5 4 5 5 6 7 6 7 7 7 6 6 7 7 6 5 7 4 7 8 9 8 6 4 3 5 5 6 5 6 5 8 10 10 9 10 9 9 9 8 8 7 7 7 7 7 7 7 7 9 14 14 13 13 13 10 8 11 15 19 18 18 18 18 18 17 16 15 15 15 14 14 15 14 12 12
6 6 7 7 7 6 6 6 6 5 5 5 5 6 6 6 7 8 8 9 5 4 4 5 5 6 6 6 5 6 5 5 5 5 5 5 7 5 6 7 9 9 9 10 12 10 10 9 9 9 8 7 7 8 7 8 7 6 9 15 15 14 14 13 12 8 9 9 8 15 17 19 19 19 17 17 17 16 15 14 15 15 13 13 12
6 6 7 8 7 7 7 7 6 6 5 6 5 5 6 6 7 7 7 7 6 5 5 6 6 6 7 6 7 7 7 8 8 7 7 5 5 8 7 7 10 9 10 11 10 11 11 10 9 9 9 9 9 8 8 8 9 11 14 15 16 15 15 14 13 11 10 10 13 13 17 19 19 19 18 18 18 17 16 15 15 15 12 13 13
6 6 8 9 8 8 8 8 7 7 7 6 5 5 5 5 5 6 6 6 6 6 6 6 6 6 7 7 7 7 7 7 6 7 8 8 8 7 7 5 6 8 4 7 9 10 10 11 10 11 10 9 9 9 8 8 10 16 13 16 16 17 16 16 14 13 12 11 13 14 17 19 18 19 19 19 18 18 17 16 16 15 14 14 14
6 7 9 10 8 8 9 9 8 8 7 7 6 6 5 6 6 6 6 7 7 7 6 5 5 6 6 7 7 7 8 8 9 7 7 7 7 8 8 6 8 6 6 6 7 8 9 11 10 10 10 9 9 9 9 9 8 14 16 13 19 16 17 17 15 14 14 13 13 13 14 17 18 18 20 19 18 18 18 16 14 12 12 11 13
7 7 8 8 7 7 8 9 8 9 10 10 9 8 7 6 6 6 6 6 6 7 6 7 7 8 7 7 7 8 8 8 9 8 8 7 8 9 7 6 8 9 3 6 6 5 7 9 10 9 10 11 9 9 9 10 9 15 18 12 15 18 18 17 17 16 15 15 15 14 14 14 14 18 19 19 17 16 15 14 11 11 12 11 11
7 6 8 7 8 7 9 8 9 9 9 9 8 9 9 8 6 6 5 5 6 6 7 7 8 7 7 7 7 6 6 7 8 8 8 9 8 7 8 8 7 8 7 6 6 11 9 7 10 10 12 11 10 9 10 10 12 17 17 12 10 19 17 19 17 17 17 16 16 16 15 13 14 13 15 14 15 15 14 12 11 12 12 12 10
7 7 8 7 8 7 8 8 8 9 8 8 8 8 8 8 8 9 8 7 8 8 7 7 8 8 8 7 7 9 8 8 8 8 8 8 9 8 8 10 9 7 6 7 7 9 11 8 9 12 11 12 12 9 12 13 10 16 17 10 10 11 18 19 19 18 18 17 17 16 16 14 15 15 14 12 15 15 14 12 13 13 13 13 12
7 7 8 8 8 8 7 8 9 8 9 10 9 9 9 7 7 8 9 9 9 9 8 8 8 8 8 9 8 8 9 9 9 9 10 9 9 9 10 11 9 10 7 8 9 9 7 11 8 10 14 11 11 9 9 10 12 14 10 10 11 10 16 19 19 19 18 18 17 17 16 16 14 17 16 12 15 16 15 13 14 14 14 14 14
7 7 8 9 9 10 8 8 9 9 9 9 9 9 9 6 7 7 7 8 8 9 8 9 9 8 8 8 8 9 7 8 8 9 8 9 10 9 10 10 9 11 9 9 8 7 7 8 9 7 12 14 11 9 10 10 14 16 12 13 11 10 16 20 20 19 19 18 18 17 17 17 16 16 16 15 16 17 16 15 14 14 14 15 16
8 9 9 9 9 9 9 8 9 10 9 10 10 9 10 7 9 7 8 9 7 8 9 9 9 9 9 9 8 8 8 8 9 9 9 9 9 8 9 9 10 12 11 9 9 5 6 8 9 9 9 13 13 11 10 11 12 15 13 12 14 15 17 16 21 20 19 19 18 17 16 17 17 17 16 15 17 17 17 15 15 14 16 18 15
8 9 9 10 10 10 9 9 10 10 11 10 11 11 10 8 8 8 9 10 10 9 9 9 8 10 10 9 9 8 8 8 9 8 8 8 9 10 10 10 11 11 11 11 11 9 6 7 8 9 10 11 12 11 11 10 11 19 12 13 14 16 12 10 18 21 20 19 19 18 18 18 18 18 17 18 18 18 18 15 17 19 18 16 15
9 8 9 9 10 10 10 10 11 11 12 12 11 10 10 11 11 11 11 11 11 10 10 11 10 10 11 11 11 10 9 9 8 7 8 9 9 9 9 9 8 8 10 10 10 9 4 2 4 7 9 9 9 12 12 10 10 11 15 13 14 12 12 12 11 18 20 20 19 19 19 18 19 18 18 18 19 19 18 18 18 18 17 16 16
9 9 10 9 9 10 10 11 11 12 12 12 12 11 11 11 11 9 10 11 11 11 10 11 12 10 10 11 12 12 9 10 9 9 9 9 9 8 9 9 9 9 8 9 9 8 11 4 5 4 5 11 9 13 13 12 12 10 13 13 12 12 12 10 11 11 21 20 20 20 20 19 19 20 19 20 18 19 19 18 19 18 17 17 16
8 9 9 9 9 10 10 11 11 11 12 12 12 12 12 12 11 11 11 11 10 10 11 11 11 11 12 11 11 12 11 10 10 9 9 10 10 9 10 9 10 10 9 10 9 9 10 8 6 7 7 8 11 12 15 13 12 13 13 13 12 11 11 12 11 9 18 20 21 20 20 20 19 18 17 19 19 18 19 19 19 18 18 17 17
9 9 9 8 10 10 10 11 12 12 13 13 12 12 13 12 12 12 11 10 10 10 10 10 10 10 11 13 12 12 13 14 12 9 8 8 9 8 9 9 9 10 10 10 11 8 8 11 7 8 8 9 9 8 11 10 10 11 11 12 12 12 11 11 12 11 14 21 20 20 20 20 19 19 20 19 19 18 19 19 19 19 18 18 17
9 9 8 9 10 11 10 11 12 12 13 13 13 14 13 12 12 12 12 11 10 10 10 9 10 10 10 11 13 13 11 12 13 10 8 10 9 8 9 8 8 8 8 8 10 10 9 10 7 6 6 7 6 7 9 10 10 10 10 11 10 11 11 12 11 12 14 21 20 20 19 19 19 19 20 20 20 20 19 19 19 18 18 18 17
8 9 9 10 10 11 11 11 11 13 13 13 13 13 13 13 12 11 11 11 11 11 10 10 10 10 9 11 11 11 11 12 13 12 11 11 10 10 10 9 8 8 9 8 8 8 10 10 7 6 6 7 6 7 9 11 10 10 11 10 9 11 11 7 6 4 6 9 10 12 15 15 17 19 19 20 20 21 20 19 19 19 18 18 17
9 10 10 11 10 10 11 11 12 12 13 12 13 14 15 14 12 12 12 12 10 9 9 9 11 12 12 11 11 10 10 11 13 13 14 14 11 11 10 10 9 9 9 9 9 9 10 10 9 7 6 7 7 8 7 10 10 11 12 9 6 5 8 10 11 9 8 12 16 18 15 13 16 15 18 20 20 22 21 20 19 19 19 18 18
9 10 10 9 9 10 10 10 11 11 11 11 13 15 14 13 13 12 11 11 10 10 12 11 11 10 11 11 11 12 11 11 11 12 13 13 13 12 8 9 9 8 8 8 8 9 9 9 9 8 7 7 6 4 5 7 6 7 7 8 11 11 11 11 12 13 12 11 12 10 12 14 14 17 19 19 21 21 22 20 21 20 20 18 18
7 8 8 8 8 9 9 10 10 10 9 10 11 14 14 14 13 12 11 9 11 11 12 12 12 12 12 11 11 12 16 20 20 16 15 14 12 12 11 8 8 9 9 8 8 8 8 8 9 7 7 7 7 7 7 9 10 10 8 11 10 10 8 5 6 8 10 13 10 11 12 12 12 9 10 9 13 19 19 21 18 22 21 19 19
8 7 8 8 8 9 9 9 9 8 9 8 18 23 18 14 12 10 9 10 12 12 12 12 13 13 12 12 12 21 22 22 19 19 19 18 18 15 13 12 8 7 8 8 8 8 8 9 10 8 8 9 8 9 9 9 9 7 8 8 8 8 7 8 8 7 8 7 8 11 10 7 9 9 10 11 10 14 11 13 13 13 18 19 18
9 8 8 8 9 9 10 10 9 8 8 12 24 20 21 22 15 10 10 10 12 11 11 12 12 14 13 13 12 16 18 18 18 21 19 19 17 18 20 18 15 10 7 9 9 9 9 9 9 9 9 9 9 8 10 9 8 10 10 10 11 9 10 11 9 1 5 11 10 11 10 9 9 10 10 10 11 11 10 11 15 18 19 18 18
8 7 10 9 8 9 8 9 10 9 8 19 21 21 21 22 19 11 9 9 10 11 11 12 11 12 13 13 13 11 12 16 17 15 18 20 19 19 19 19 17 18 15 11 8 8 9 9 9 10 9 10 10 10 10 9 9 8 8 9 10 10 11 12 11 12 9 14 12 11 11 8 9 10 10 10 10 10 12 13 17 18 18 18 18
7 9 9 9 10 9 9 10 11 10 9 19 21 22 21 21 21 15 9 10 10 12 11 12 12 12 13 13 14 12 12 23 17 14 16 17 20 20 18 18 15 15 16 17 15 11 8 10 10 10 10 9 9 10 11 12 10 12 11 10 10 10 11 12 11 10 8 14 11 10 11 8 9 10 11 9 9 9 10 14 19 17 18 18 18
8 9 9 9 9 9 9 9 9 10 11 19 22 22 22 21 20 14 10 10 11 12 12 13 12 12 13 13 13 14 15 16 14 16 17 15 14 14 12 10 9 11 13 15 16 17 13 9 10 11 10 9 11 10 10 9 10 12 11 11 10 11 12 14 8 4 3 12 14 12 8 10 9 8 11 8 9 9 9 13 19 18 17 18 17
8 8 8 9 8 8 10 9 9 9 10 20 20 22 22 22 19 12 11 10 10 11 12 13 13 13 13 12 13 13 15 15 13 20 18 17 15 12 12 12 10 9 7 8 9 9 10 10 8 9 9 8 10 8 5 9 13 12 13 14 15 14 8 4 6 5 8 10 9 9 12 9 8 9 7 7 7 7 6 12 17 17 17 17 17
7 7 8 7 9 9 9 10 10 11 10 18 20 21 21 21 17 11 10 11 11 12 12 13 13 13 12 14 14 15 16 15 20 26 22 18 15 12 12 10 10 8 7 4 3 3 3 6 7 5 4 5 7 6 5 7 8 8 4 2 2 4 7 7 7 5 7 8 10 11 5 7 8 8 4 3 7 8 6 8 14 17 17 17 16
7 8 7 7 7 8 10 10 10 10 10 16 19 20 20 21 14 10 11 10 11 12 12 13 12 13 12 16 14 14 15 15 22 25 24 23 12 11 10 11 10 6 7 2 5 7 7 4 4 6 7 9 8 9 10 11 11 8 7 7 10 8 8 8 6 5 7 8 8 10 6 8 5 6 7 3 4 6 5 6 8 14 17 16 16
8 7 6 7 7 7 8 10 10 9 10 14 19 19 20 21 16 11 11 10 11 12 12 12 12 12 14 23 21 16 15 15 24 24 24 20 13 14 12 10 10 6 3 5 3 5 6 8 10 9 10 10 10 9 8 8 8 10 10 12 9 9 10 11 10 9 6 8 9 8 9 8 8 7 9 5 7 4 3 3 5 6 11 14 16
6 5 6 7 7 8 8 8 14 12 10 12 18 19 20 20 16 10 12 11 11 12 12 12 12 12 12 13 20 20 18 19 24 24 25 21 14 15 15 13 6 6 5 3 4 5 6 7 8 7 9 10 8 5 7 10 7 7 7 10 9 11 11 10 8 6 5 6 6 8 9 6 11 8 10 7 4 3 3 3 5 6 6 6 9
Wind_Direction
237 275 325 297 281 245 201 230 197 237 141 316 337 306 319 326 317 316 315 322 341 123 157 194 208 196 174 184 191 195 195 197 202 199 192 188 207 233 197 197 182 191 187 189 196 219 162 174 171 178 176 176 169 183 173 156 157 161 153 163 152 154 154 137 120 122 112 114 115 117 115 111 105 102 100 97 94 89 93 106 97 88 92 92 87
200 227 246 281 297 312 285 241 239 280 116 325 282 282 294 322 318 311 314 317 323 330 104 163 202 212 203 188 194 198 194 192 198 208 195 186 211 242 211 196 180 202 201 192 198 190 193 192 186 186 176 168 173 179 161 160 160 165 158 148 154 162 161 158 139 127 123 121 117 115 116 112 106 103 102 100 100 100 98 93 92 88 89 92 89
172 190 218 238 265 281 284 312 301 322 120 216 209 234 249 250 273 286 295 301 297 302 309 155 182 219 225 205 199 186 193 194 201 201 199 201 205 232 227 200 194 203 214 195 193 198 197 192 189 188 180 176 177 164 173 171 159 153 158 145 157 165 169 161 144 135 139 137 134 126 117 115 112 108 103 103 101 99 94 95 94 97 93 101 101
183 203 217 230 239 250 276 303 285 246 129 242 263 227 241 249 232 229 251 258 277 287 277 191 169 212 245 222 188 187 189 186 192 196 200 198 200 238 244 218 201 204 211 200 200 207 202 194 190 185 173 179 177 195 179 175 160 159 153 149 167 182 173 156 150 147 146 140 132 132 126 125 119 115 113 107 105 103 101 100 98 100 101 111 111
241 245 258 221 234 242 253 255 267 289 129 237 278 279 271 280 285 275 246 258 297 317 12 51 212 239 239 233 184 191 183 177 181 187 197 192 199 234 265 249 225 206 198 200 205 201 217 192 194 180 178 182 190 209 205 168 166 168 162 162 164 171 164 160 156 152 145 140 144 137 132 127 123 117 113 108 109 111 110 103 97 98 105 110 111
296 281 228 232 219 236 243 250 250 262 261 237 243 264 290 297 270 257 258 236 259 245 270 274 265 246 235 215 206 192 177 182 177 183 182 190 181 210 249 272 252 241 191 199 201 203 220 227 197 197 186 185 197 190 198 174 173 181 170 171 171 175 164 163 156 158 148 148 143 140 134 126 122 120 116 113 108 109 110 99 102 105 108 116 114
284 276 258 236 245 245 235 244 238 227 222 222 247 236 241 247 240 260 270 282 307 278 237 234 241 247 234 197 201 183 193 190 176 177 185 184 172 192 218 252 260 268 230 205 201 205 221 237 220 194 187 191 202 195 192 177 183 180 181 179 183 183 180 166 166 159 145 150 145 141 137 129 127 124 120 116 118 117 109 100 95 93 98 106 104
275 264 267 254 253 258 250 216 210 203 224 212 232 248 232 241 249 246 268 256 284 268 223 234 237 251 234 205 201 185 191 186 193 195 191 172 177 168 194 237 258 247 248 219 202 206 217 223 216 180 193 185 191 205 192 183 178 188 191 188 182 184 176 174 176 167 147 153 145 138 138 134 132 130 125 121 125 120 116 114 105 98 100 105 107
261 254 253 260 257 262 266 236 189 196 203 211 223 242 248 255 258 227 215 250 232 261 268 231 247 261 255 234 216 199 196 194 194 197 174 180 166 178 181 205 222 223 211 207 214 203 215 214 210 180 191 179 194 203 191 180 181 186 189 189 189 182 182 182 183 176 161 158 148 137 137 134 135 130 129 130 130 130 125 121 113 107 114 111 109
249 246 249 258 261 264 280 282 260 220 209 197 224 218 221 218 256 268 245 196 239 249 254 164 257 265 261 243 221 215 215 205 197 188 186 176 182 197 198 209 220 216 204 194 204 203 202 210 206 192 190 181 194 203 185 181 190 194 189 188 187 183 189 190 188 176 165 163 154 142 140 140 141 135 135 137 138 135 133 127 122 120 117 115 114
236 238 248 254 264 264 265 278 277 273 265 261 256 240 234 229 240 257 247 219 243 237 246 234 239 256 247 248 222 213 219 212 198 191 193 190 193 206 184 214 206 219 213 203 197 196 196 193 200 197 196 186 187 185 187 185 185 198 191 194 183 190 194 196 184 175 172 164 154 143 144 149 152 140 142 144 138 137 136 130 128 128 122 119 118
230 229 235 257 261 265 272 286 286 275 267 265 265 262 260 249 242 245 248 229 223 244 246 243 233 211 225 238 234 234 215 206 198 196 194 176 200 214 199 221 208 217 222 213 200 195 192 190 188 190 186 186 178 179 187 186 183 200 186 193 188 189 199 199 184 180 174 162 158 152 153 158 160 150 147 150 146 139 136 133 133 131 128 126 124
243 212 240 254 259 263 266 276 277 282 281 279 270 264 251 249 254 234 252 253 231 220 235 198 198 229 201 222 262 228 228 215 210 200 199 188 202 215 206 204 205 206 212 209 204 197 193 188 186 177 185 185 186 187 186 189 179 195 191 191 189 193 196 200 194 183 175 167 164 158 163 161 163 156 156 153 147 139 134 133 136 135 134 134 128
263 239 253 249 265 275 271 271 265 255 263 269 278 276 274 260 253 260 228 250 260 193 204 128 229 230 225 260 235 217 215 219 224 220 212 199 200 210 201 204 208 206 199 203 210 204 195 190 178 179 183 183 189 192 189 192 183 190 196 191 199 197 197 201 201 189 173 171 167 161 167 163 163 164 158 154 154 143 136 136 135 134 136 135 133
259 247 243 251 257 265 265 261 255 268 269 257 260 270 267 262 255 259 273 222 241 196 178 187 220 198 241 234 241 237 235 233 230 231 215 210 206 214 210 212 213 200 202 210 214 207 199 187 185 180 181 187 190 189 190 188 173 191 197 186 202 203 199 201 207 191 174 172 168 166 167 162 166 174 162 157 157 149 142 141 137 134 133 133 134
322 289 263 246 262 277 272 265 273 268 276 281 277 259 255 251 250 252 248 267 234 236 193 200 207 135 253 212 224 157 308 238 217 227 211 208 207 216 211 216 210 196 197 209 212 210 199 187 190 186 186 187 186 185 186 188 185 187 196 188 197 208 204 207 206 198 182 176 172 169 168 167 173 179 170 158 156 153 148 147 141 138 134 132 134
349 336 316 300 288 284 296 303 309 310 295 274 279 278 272 262 262 257 240 245 260 244 219 203 210 203 200 110 27 286 222 268 193 243 183 208 215 212 216 219 212 205 205 213 211 211 197 194 194 188 189 189 187 187 183 186 189 197 190 197 203 201 211 211 203 205 190 180 173 170 170 174 178 181 171 150 157 161 154 151 147 143 141 141 135
5 356 346 332 326 320 314 309 312 304 302 303 295 288 284 280 260 260 266 241 240 255 258 208 221 222 229 228 154 197 255 248 172 272 199 221 207 206 213 218 214 208 205 208 208 211 202 201 189 192 189 188 190 186 187 186 191 193 180 190 203 198 210 219 209 206 199 183 178 177 176 173 181 187 167 155 161 162 161 156 152 152 148 148 146
3 2 355 343 333 326 317 310 301 302 300 281 277 274 273 272 271 260 254 250 236 252 252 244 194 221 231 228 224 206 196 173 220 7 294 200 208 208 212 212 214 208 208 215 209 205 205 203 196 192 188 186 189 190 189 191 194 190 191 183 200 204 211 240 224 210 205 194 189 181 178 173 176 181 170 172 171 167 166 162 161 158 154 155 157
5 360 0 356 350 343 335 326 323 311 306 288 271 269 272 272 274 278 262 250 248 249 261 249 229 221 215 231 228 227 218 221 197 202 198 246 233 207 219 210 209 214 212 215 211 208 207 205 202 192 189 189 188 189 189 190 194 195 198 194 198 204 213 226 230 215 214 207 196 187 182 174 174 176 173 175 180 174 172 173 169 159 156 159 168
7 3 1 2 359 348 336 331 329 325 320 312 301 293 290 295 295 290 289 263 243 240 239 247 213 240 211 231 233 233 228 226 229 191 213 219 252 223 226 205 215 218 216 213 215 211 207 203 198 192 186 187 189 191 190 189 194 194 201 198 199 202 210 221 218 219 199 210 213 194 188 177 177 177 174 176 180 178 176 178 166 164 161 163 169
0 5 5 3 360 359 355 346 336 326 323 313 310 304 296 292 295 301 303 306 300 287 248 246 236 243 227 235 232 241 237 219 212 218 228 220 244 237 220 203 215 221 209 213 211 208 209 204 201 199 193 189 190 192 191 192 192 190 199 198 201 202 206 216 214 197 208 198 207 209 199 184 183 179 174 176 180 181 180 180 171 174 170 166 172
1 5 8 1 1 2 358 354 351 344 331 322 316 310 307 303 302 301 299 298 295 281 250 237 237 241 243 239 240 236 230 224 221 218 219 210 218 245 243 219 221 227 215 212 210 207 206 207 196 199 197 197 194 191 193 195 193 199 196 196 200 202 205 210 209 198 200 192 201 217 205 194 186 182 175 177 180 182 184 183 185 183 174 174 176
6 6 8 360 2 3 1 358 1 352 342 328 320 315 310 302 297 296 298 291 286 280 272 261 242 238 236 238 242 236 242 245 237 222 218 224 217 236 236 233 246 235 210 194 209 210 205 209 196 201 196 194 193 191 191 190 199 200 197 197 199 201 204 205 207 198 196 198 200 206 214 202 193 185 179 180 182 184 185 186 190 189 180 182 181
5 7 4 359 360 8 6 6 2 355 349 345 336 329 326 318 311 305 299 303 302 301 287 262 253 250 250 243 243 241 233 236 245 239 227 225 219 235 237 219 236 237 214 177 208 212 207 209 200 201 201 195 194 191 193 193 192 198 198 197 198 201 203 205 203 199 195 199 200 208 210 207 203 195 182 180 182 184 185 188 190 182 172 180 188
3 11 357 354 1 9 17 8 4 2 8 0 353 345 339 328 324 316 312 301 294 290 284 275 265 257 253 258 247 238 234 235 236 235 232 226 227 226 234 225 227 238 200 197 206 195 220 215 204 200 203 198 193 191 190 195 195 197 197 196 199 201 203 206 205 199 196 199 200 206 207 202 205 202 192 180 182 183 185 185 179 163 161 172 192
8 3 359 353 1 13 18 7 6 8 11 4 355 354 350 336 334 324 314 300 298 293 292 294 286 272 269 273 278 269 260 248 243 238 228 228 230 228 224 233 230 228 227 210 203 208 216 200 202 201 204 201 198 192 192 192 197 194 195 198 197 200 202 204 206 201 196 198 200 202 203 203 192 203 190 198 171 177 183 177 166 159 160 172 189
7 2 4 360 0 12 17 11 7 8 4 360 358 357 348 350 350 344 339 339 324 315 306 298 295 291 286 280 276 277 272 263 256 250 241 232 232 231 225 229 233 236 216 225 204 220 209 203 203 206 197 200 202 196 195 193 196 194 192 197 199 197 201 202 205 205 199 199 200 200 198 199 182 198 196 201 170 174 179 174 167 161 166 173 187
8 6 5 6 3 6 17 12 10 6 5 6 358 355 353 356 349 345 350 344 334 325 313 301 291 279 272 268 264 261 260 261 254 246 244 237 231 228 223 226 223 231 223 225 217 212 203 195 203 206 202 198 201 198 193 196 194 190 192 196 197 197 198 201 203 205 201 198 200 201 196 195 191 188 194 187 178 172 177 171 167 165 170 176 189
14 7 6 9 6 6 2 12 4 3 4 1 359 357 353 353 349 345 338 336 332 330 324 313 302 288 279 276 269 266 258 252 252 250 244 241 237 229 227 224 217 225 222 229 233 210 207 193 204 197 197 203 197 196 201 199 194 189 194 197 197 197 191 197 201 203 202 196 197 199 195 195 192 191 193 182 183 174 174 169 168 170 173 180 191
12 9 11 10 5 1 357 5 4 359 358 360 357 356 356 349 348 338 339 338 333 326 323 319 312 303 297 292 284 275 270 265 258 254 250 246 244 236 232 225 222 223 222 227 238 231 189 193 208 205 184 200 198 196 198 201 193 190 194 195 201 198 189 195 199 201 201 198 194 196 195 193 193 196 189 185 183 180 174 170 172 173 181 184 192
12 10 13 14 9 3 2 6 4 3 1 0 359 354 350 348 341 338 338 338 331 324 321 321 316 312 306 299 294 289 282 275 264 250 246 244 245 246 237 232 225 219 219 221 227 233 212 197 198 193 193 192 195 194 201 201 196 190 195 195 198 195 192 198 199 200 201 199 195 196 195 192 191 195 188 187 185 183 177 171 177 184 185 182 189
7 8 11 14 11 8 9 11 9 7 4 2 360 354 353 347 343 340 339 339 335 328 325 321 321 317 313 307 300 291 288 283 279 264 250 246 242 237 239 240 235 223 219 221 227 230 255 238 193 197 196 180 178 193 200 196 196 195 198 198 195 193 194 198 193 200 200 198 197 196 197 193 191 193 193 185 185 184 178 176 178 182 183 179 186
10 7 16 15 15 14 15 13 11 8 5 1 356 353 349 344 341 339 336 335 331 326 326 323 324 322 315 309 306 300 288 283 283 278 265 256 246 242 234 230 229 224 214 225 229 218 229 220 231 217 180 185 196 197 201 192 194 182 194 197 196 192 194 191 195 195 198 198 197 196 196 194 192 196 186 182 185 181 174 177 177 180 181 179 181
12 13 9 18 18 18 18 15 11 7 3 358 354 350 346 342 337 333 328 325 322 320 321 318 317 318 315 310 305 305 300 288 284 278 274 265 257 248 243 230 229 224 215 216 223 220 219 232 205 201 192 192 201 199 204 203 196 189 190 192 189 191 196 194 191 194 192 197 195 195 196 195 194 189 186 183 179 180 174 176 176 178 181 177 179
21 12 8 13 22 21 19 14 12 6 2 357 352 350 346 340 334 326 322 319 316 315 311 309 309 312 313 311 307 307 307 302 292 283 273 261 251 248 244 238 234 229 220 215 219 222 216 231 212 205 198 194 214 204 198 200 192 191 195 198 194 191 192 191 192 193 190 193 194 195 196 195 192 187 180 183 176 178 175 176 177 178 179 178 179
21 18 13 21 25 23 19 14 9 6 360 356 352 350 344 337 332 325 322 319 314 310 304 298 304 305 305 305 304 306 305 303 302 288 278 268 262 253 246 238 233 225 220 215 217 215 220 227 224 216 202 207 205 198 188 192 197 188 193 199 190 194 193 194 190 193 180 187 191 194 196 195 192 187 181 181 175 175 177 177 178 178 179 179 180
20 22 18 26 26 23 20 16 12 7 1 358 354 348 342 337 331 326 323 320 314 310 309 305 298 301 297 300 301 303 305 305 306 304 292 277 268 259 250 243 234 225 223 219 216 220 221 232 227 211 203 195 191 200 192 193 184 181 190 194 195 193 194 185 182 148 158 173 187 195 195 194 192 188 184 182 177 175 176 178 178 179 179 180 181
26 24 19 25 25 22 20 16 12 7 2 360 358 351 345 340 333 329 329 329 317 313 308 297 322 324 311 301 301 305 310 314 318 323 320 308 284 265 254 249 239 230 226 219 217 219 221 225 228 220 205 210 198 196 199 197 193 188 188 168 167 183 194 180 182 177 179 186 193 189 189 188 188 189 187 184 181 176 177 177 179 180 181 181 182
27 24 21 15 19 20 17 16 11 9 359 1 2 356 347 341 337 334 332 329 324 334 341 342 337 334 337 332 328 324 321 323 324 318 321 320 316 295 263 246 242 236 228 224 218 217 216 217 220 213 205 199 215 204 170 186 186 202 175 156 184 192 196 195 189 181 184 180 186 189 192 189 189 189 188 186 183 179 177 178 178 181 180 181 182
25 24 21 18 14 15 13 12 10 5 2 2 3 357 349 347 343 338 335 324 345 349 345 346 345 345 342 336 330 328 328 325 320 317 315 315 314 310 293 252 242 235 230 227 221 217 218 218 221 211 206 204 206 188 185 192 193 193 179 191 199 194 190 162 199 197 186 181 180 175 184 180 179 182 184 188 189 182 180 177 181 181 180 180 180
23 20 19 18 17 17 9 6 6 4 3 2 355 353 355 353 346 336 327 345 355 351 350 347 345 345 344 341 333 334 333 329 324 320 318 316 316 316 302 286 256 238 235 231 227 221 218 219 221 214 203 206 201 197 194 199 198 191 178 186 195 188 164 188 189 192 180 170 145 175 183 167 171 177 181 188 187 184 177 178 184 180 181 178 177
23 19 19 18 18 13 14 10 4 3 3 2 354 353 354 356 357 343 346 352 356 355 354 352 348 345 341 342 338 335 336 334 331 325 319 315 315 317 317 301 274 256 235 231 226 218 218 220 220 213 213 208 203 195 205 199 198 191 189 188 194 175 172 172 192 218 197 162 169 174 187 178 175 179 182 184 175 178 178 186 178 178 175 175 174
18 19 22 17 15 11 10 10 12 6 2 2 356 357 356 354 356 350 348 357 358 356 355 354 349 345 344 342 341 338 336 336 331 326 323 318 314 311 310 306 291 264 251 239 233 227 219 220 219 217 214 216 208 196 197 189 196 195 195 191 195 183 182 192 186 192 186 178 170 187 174 169 184 185 180 186 172 174 179 175 171 176 171 173 174
17 24 17 15 15 9 10 9 11 7 5 3 359 359 358 356 352 352 354 357 360 358 354 353 347 347 348 346 343 341 339 339 336 329 325 318 311 306 300 297 288 265 255 251 249 240 224 227 222 222 217 218 216 211 199 196 183 193 190 196 198 192 196 201 199 191 166 177 168 176 184 177 179 181 183 177 169 168 171 169 171 171 171 173 174
21 19 15 15 11 10 9 6 3 6 8 3 1 0 360 357 352 349 1 358 1 1 359 355 348 349 346 346 343 342 339 336 333 333 327 314 308 301 298 294 286 273 246 242 242 245 250 237 221 223 223 211 221 215 200 181 185 199 191 202 195 196 199 208 199 167 146 174 182 167 175 167 180 180 181 169 163 163 171 170 168 168 170 171 172
17 12 9 11 8 6 5 3 5 4 4 1 2 1 0 358 351 355 2 360 1 2 1 358 355 352 346 348 347 343 336 332 334 336 327 316 306 292 286 282 272 259 248 236 227 221 222 238 247 231 232 221 228 235 196 192 200 200 193 198 196 201 186 87 66 135 157 189 180 170 188 170 165 166 168 150 142 154 158 160 163 165 167 168 169
14 13 14 13 9 5 3 4 8 5 358 1 3 2 1 359 353 2 0 2 2 1 360 2 358 355 350 354 352 348 340 333 337 335 330 320 303 285 280 274 270 255 245 241 352 324 272 249 250 273 303 335 346 291 231 197 211 214 214 135 75 119 135 168 172 164 173 193 187 178 156 157 167 155 102 87 127 127 133 150 164 163 165 165 165
15 14 7 5 2 7 10 8 8 3 359 360 3 3 3 1 0 2 2 360 2 2 1 360 357 355 353 357 356 348 340 339 340 338 337 335 323 306 288 283 273 259 249 4 27 22 7 9 350 330 2 5 3 359 316 232 201 193 177 189 201 164 164 186 174 159 191 178 194 186 134 142 169 131 118 67 93 95 71 135 158 166 163 162 159
18 4 360 7 8 9 11 9 8 4 359 358 3 4 6 5 5 6 3 3 1 4 359 360 359 355 353 355 359 354 343 342 343 346 347 347 348 345 322 292 285 260 22 21 41 34 37 52 51 60 45 32 34 27 31 356 277 192 178 209 190 166 193 190 188 189 166 190 194 161 138 162 132 120 110 99 75 38 54 109 120 146 159 153 152
19 2 8 13 10 15 12 8 10 9 359 358 2 4 7 8 9 8 8 8 5 5 1 360 357 356 350 347 352 354 352 347 349 355 355 358 359 356 345 334 339 48 13 4 49 43 41 46 30 30 26 21 20 30 24 28 34 313 246 216 167 187 197 198 187 136 165 226 196 160 149 149 143 160 137 119 84 56 42 60 109 118 123 121 124